�N����,����,�~����,�C��,���x,�C��,����,���ϕ���,�ő�u�ԕ���,�ő厞����,���˗�,�I�_���x,�n�����x,�ő啗���N��,DTYPE
"23/11/05","00:10",0.0,16.7,89.0,1019.2,326.1,2.2,3.3,331.7,0.00,14.9,16.5,"00:03:28",1
"23/11/05","00:20",0.0,16.7,88.9,1019.2,325.1,1.7,3.3,342.0,0.00,14.9,16.6,"00:18:08",1
"23/11/05","00:30",0.0,16.7,88.9,1019.2,328.1,2.0,3.5,331.6,0.00,14.9,16.6,"00:20:40",1
"23/11/05","00:40",0.0,16.9,88.9,1019.0,321.4,2.1,4.4,332.6,0.00,15.1,16.7,"00:32:16",1
"23/11/05","00:50",0.0,16.7,89.0,1019.7,280.3,1.0,1.8,306.1,0.00,14.9,16.7,"00:43:28",1
"23/11/05","01:00",0.0,16.4,89.1,1019.2,296.6,0.8,1.2,267.5,0.00,14.6,16.5,"00:50:32",1
"23/11/05","01:10",0.0,15.9,89.3,1019.4,323.9,1.0,1.7,337.8,0.00,14.2,16.6,"01:05:56",1
"23/11/05","01:20",0.0,15.2,89.6,1019.7,279.1,1.0,1.3,325.1,0.00,13.5,16.4,"01:16:02",1
"23/11/05","01:30",0.0,15.2,90.2,1019.7,297.6,1.3,1.9,316.1,0.00,13.6,16.5,"01:25:22",1
"23/11/05","01:40",0.0,15.4,90.5,1019.9,316.4,1.3,2.1,315.0,0.00,13.9,16.2,"01:33:30",1
"23/11/05","01:50",0.0,15.5,90.8,1019.4,310.5,1.5,2.1,322.2,0.00,14.0,16.6,"01:42:24",1
"23/11/05","02:00",0.0,15.2,91.0,1019.7,298.9,1.1,1.4,310.0,0.00,13.8,16.4,"01:50:46",1
"23/11/05","02:10",0.0,15.0,91.4,1019.4,283.6,1.1,1.6,286.6,0.00,13.7,16.2,"02:08:36",1
"23/11/05","02:20",0.0,14.9,91.6,1019.4,298.1,0.7,1.2,312.8,0.00,13.6,16.3,"02:14:44",1
"23/11/05","02:30",0.0,14.7,91.9,1019.4,293.4,0.8,1.6,307.1,0.00,13.4,16.3,"02:28:26",1
"23/11/05","02:40",0.0,14.8,92.1,1019.7,309.5,0.7,1.7,313.7,0.00,13.6,16.2,"02:36:30",1
"23/11/05","02:50",0.0,14.8,92.3,1019.7,297.8,1.0,1.6,306.4,0.00,13.6,16.4,"02:42:50",1
"23/11/05","03:00",0.0,14.4,92.4,1019.2,295.6,0.8,1.1,311.9,0.00,13.2,16.1,"02:54:58",1
"23/11/05","03:10",0.0,14.1,92.6,1019.2,292.5,0.7,1.2,311.7,0.00,13.0,16.2,"03:09:36",1
"23/11/05","03:20",0.0,13.9,92.8,1019.4,296.3,1.0,1.4,311.1,0.00,12.8,16.2,"03:14:50",1
"23/11/05","03:30",0.0,13.8,93.1,1019.4,298.1,1.2,1.7,318.8,0.00,12.7,16.2,"03:25:28",1
"23/11/05","03:40",0.0,13.8,93.3,1019.4,311.6,1.6,1.8,309.0,0.00,12.8,15.9,"03:36:08",1
"23/11/05","03:50",0.0,13.5,93.4,1019.0,296.6,1.2,1.8,319.4,0.00,12.5,16.1,"03:40:08",1
"23/11/05","04:00",0.0,13.8,93.9,1019.4,295.8,1.3,2.7,324.2,0.00,12.9,15.9,"03:57:02",1
"23/11/05","04:10",0.0,13.8,93.7,1019.4,268.6,1.1,1.6,297.3,0.00,12.8,15.9,"04:00:08",1
"23/11/05","04:20",0.0,13.8,93.9,1019.2,297.2,1.2,1.9,318.1,0.00,12.9,16.0,"04:16:52",1
"23/11/05","04:30",0.0,13.3,94.0,1019.2,283.4,0.8,1.2,298.2,0.00,12.4,16.0,"04:28:38",1
"23/11/05","04:40",0.0,13.1,94.2,1019.0,277.1,0.7,1.2,264.2,0.00,12.2,15.9,"04:38:08",1
"23/11/05","04:50",0.0,12.9,94.6,1019.4,303.1,1.2,2.2,318.3,0.00,12.1,15.8,"04:49:16",1
"23/11/05","05:00",0.0,12.8,94.7,1019.2,314.8,1.8,2.4,319.8,0.00,12.0,15.7,"04:54:22",1
"23/11/05","05:10",0.0,12.6,94.9,1019.2,306.6,1.5,1.9,314.3,0.00,11.8,16.0,"05:05:06",1
"23/11/05","05:20",0.0,12.7,95.1,1019.4,301.6,1.5,1.8,314.2,0.00,12.0,15.7,"05:11:08",1
"23/11/05","05:30",0.0,13.3,95.2,1019.4,294.7,1.6,2.2,311.2,0.00,12.6,15.7,"05:22:42",1
"23/11/05","05:40",0.0,13.3,95.2,1019.4,295.0,1.5,1.9,309.2,0.00,12.6,15.8,"05:36:28",1
"23/11/05","05:50",0.0,13.0,95.2,1019.7,292.1,1.2,1.8,312.1,0.00,12.3,15.7,"05:40:08",1
"23/11/05","06:00",0.0,13.0,95.5,1019.9,288.5,1.3,1.8,304.4,0.00,12.3,15.5,"05:58:32",1
"23/11/05","06:10",0.0,13.5,95.6,1019.7,298.1,1.6,2.4,322.2,0.00,12.9,15.5,"06:09:22",1
"23/11/05","06:20",0.0,13.1,95.6,1019.4,311.8,1.5,1.9,317.6,0.00,12.5,15.6,"06:18:32",1
"23/11/05","06:30",0.0,12.9,95.8,1019.9,315.1,1.5,1.9,327.3,0.00,12.3,15.6,"06:24:02",1
"23/11/05","06:40",0.0,12.6,95.9,1019.9,293.9,0.8,2.0,320.6,0.00,12.0,15.7,"06:38:52",1
"23/11/05","06:50",0.0,12.8,96.2,1020.4,319.9,1.7,2.5,323.7,0.00,12.3,15.5,"06:48:04",1
"23/11/05","07:00",0.0,13.0,96.1,1020.1,308.1,1.6,2.0,314.5,0.00,12.4,15.3,"06:52:56",1
"23/11/05","07:10",0.0,13.1,96.5,1020.4,289.1,1.2,1.9,304.1,0.00,12.6,15.4,"07:09:36",1
"23/11/05","07:20",0.0,13.9,96.5,1020.1,299.9,1.6,3.1,315.5,0.02,13.4,15.4,"07:19:20",1
"23/11/05","07:30",0.0,14.3,96.3,1020.4,310.4,1.3,2.4,318.4,0.02,13.8,15.4,"07:20:48",1
"23/11/05","07:40",0.0,14.7,96.5,1020.4,306.4,1.6,2.8,310.1,0.04,14.2,15.5,"07:35:20",1
"23/11/05","07:50",0.0,15.5,96.5,1020.1,296.9,1.3,2.4,313.9,0.07,15.0,15.4,"07:43:40",1
"23/11/05","08:00",0.0,16.2,96.3,1020.1,308.3,1.2,2.1,327.0,0.09,15.7,15.4,"07:50:32",1
"23/11/05","08:10",0.0,16.6,95.9,1020.4,297.8,1.1,2.0,318.4,0.08,16.0,15.3,"08:08:16",1
"23/11/05","08:20",0.0,16.7,95.4,1020.6,318.9,1.6,2.7,338.6,0.09,16.0,15.7,"08:13:44",1
"23/11/05","08:30",0.0,17.5,95.0,1020.6,303.4,1.3,3.4,335.4,0.13,16.7,15.4,"08:24:56",1
"23/11/05","08:40",0.0,18.0,94.2,1020.4,291.4,1.2,2.6,346.0,0.14,17.1,15.6,"08:33:52",1
"23/11/05","08:50",0.0,18.7,93.4,1020.8,278.0,1.0,2.4,244.8,0.18,17.7,15.6,"08:41:44",1
"23/11/05","09:00",0.0,18.9,91.2,1020.8,255.6,1.0,2.6,225.1,0.20,17.5,15.5,"08:58:32",1
"23/11/05","09:10",0.0,19.9,89.1,1020.6,225.4,0.6,1.2,246.3,0.22,18.1,15.5,"09:00:16",1
"23/11/05","09:20",0.0,20.8,84.6,1020.1,237.7,0.6,1.7,201.6,0.24,18.2,15.8,"09:14:16",1
"23/11/05","09:30",0.0,21.6,80.4,1019.9,321.2,0.6,1.7,241.7,0.26,18.1,15.9,"09:21:28",1
"23/11/05","09:40",0.0,22.2,76.3,1019.9,138.9,0.5,1.1,123.2,0.28,17.9,15.9,"09:36:16",1
"23/11/05","09:50",0.0,22.7,72.9,1019.2,118.1,0.5,1.4,119.6,0.29,17.6,15.9,"09:48:08",1
"23/11/05","10:00",0.0,23.1,70.6,1019.2,213.3,0.7,2.2,237.8,0.31,17.5,16.2,"09:56:48",1
"23/11/05","10:10",0.0,23.3,66.4,1019.0,202.4,1.2,2.4,198.3,0.32,16.7,16.2,"10:09:28",1
"23/11/05","10:20",0.0,23.9,66.1,1018.5,187.9,1.0,2.4,225.7,0.33,17.2,16.2,"10:18:40",1
"23/11/05","10:30",0.0,24.0,64.6,1018.5,184.3,1.2,3.2,198.9,0.34,17.0,16.2,"10:28:08",1
"23/11/05","10:40",0.0,23.9,64.0,1018.5,204.6,2.1,4.7,225.9,0.35,16.7,16.4,"10:34:08",1
"23/11/05","10:50",0.0,24.4,63.1,1018.5,197.4,1.2,3.2,218.3,0.36,17.0,16.4,"10:41:20",1
"23/11/05","11:00",0.0,24.7,61.0,1017.8,196.8,1.3,4.2,194.2,0.36,16.7,16.6,"10:59:20",1
"23/11/05","11:10",0.0,24.8,61.4,1017.5,188.0,1.3,3.4,233.2,0.36,16.9,16.8,"11:00:16",1
"23/11/05","11:20",0.0,25.5,59.2,1017.3,170.3,1.1,3.2,195.1,0.37,17.0,16.8,"11:16:40",1
"23/11/05","11:30",0.0,25.6,58.0,1017.3,158.3,1.5,4.0,229.9,0.37,16.8,16.7,"11:23:44",1
"23/11/05","11:40",0.0,25.8,58.4,1017.3,158.6,1.5,3.2,205.2,0.37,17.1,17.1,"11:32:00",1
"23/11/05","11:50",0.0,26.1,56.5,1017.1,106.5,1.1,3.1,135.7,0.37,16.8,17.1,"11:43:52",1
"23/11/05","12:00",0.0,26.1,56.0,1017.3,115.9,1.3,4.2,67.5,0.37,16.7,17.3,"11:50:48",1
"23/11/05","12:10",0.0,26.3,55.3,1016.8,74.6,1.0,2.9,55.3,0.36,16.7,17.0,"12:01:52",1
"23/11/05","12:20",0.0,26.5,55.4,1016.8,80.9,1.0,2.9,74.9,0.36,16.9,17.0,"12:10:24",1
"23/11/05","12:30",0.0,26.5,55.6,1016.6,86.1,1.2,2.8,1.9,0.35,16.9,17.5,"12:24:40",1
"23/11/05","12:40",0.0,26.5,54.4,1016.8,133.0,1.1,2.1,135.5,0.35,16.6,17.5,"12:30:24",1
"23/11/05","12:50",0.0,26.6,54.2,1016.6,105.5,1.2,2.9,42.6,0.34,16.6,17.5,"12:43:20",1
"23/11/05","13:00",0.0,26.5,53.9,1016.4,143.4,1.3,4.0,180.6,0.33,16.5,17.9,"12:54:16",1
"23/11/05","13:10",0.0,26.8,52.6,1016.4,98.2,1.2,3.3,128.5,0.31,16.3,17.9,"13:08:48",1
"23/11/05","13:20",0.0,26.8,50.3,1016.1,107.1,1.1,2.5,2.5,0.30,15.6,17.9,"13:18:24",1
"23/11/05","13:30",0.0,27.1,50.5,1015.9,106.2,1.0,2.5,358.7,0.29,16.0,18.0,"13:23:52",1
"23/11/05","13:40",0.0,27.0,49.1,1015.9,108.8,1.1,2.5,112.0,0.28,15.5,18.1,"13:34:00",1
"23/11/05","13:50",0.0,27.2,49.3,1015.6,97.8,1.1,3.4,134.4,0.26,15.7,18.1,"13:42:40",1
"23/11/05","14:00",0.0,27.1,47.8,1015.6,107.1,1.2,3.2,132.4,0.24,15.1,18.2,"13:56:48",1
"23/11/05","14:10",0.0,27.3,49.1,1015.9,109.6,1.1,3.4,123.7,0.22,15.7,18.2,"14:01:44",1
"23/11/05","14:20",0.0,27.4,47.4,1015.6,89.9,1.0,2.7,102.8,0.21,15.3,18.4,"14:16:24",1
"23/11/05","14:30",0.0,27.1,48.6,1015.2,117.7,1.2,3.1,148.2,0.19,15.4,18.6,"14:21:52",1
"23/11/05","14:40",0.0,26.9,48.8,1015.2,123.9,1.2,2.4,138.3,0.17,15.3,18.5,"14:36:08",1
"23/11/05","14:50",0.0,27.0,49.0,1015.4,90.6,1.0,2.2,115.9,0.15,15.4,18.4,"14:46:00",1
"23/11/05","15:00",0.0,26.8,49.5,1015.2,99.9,1.2,3.6,45.1,0.13,15.4,18.6,"14:58:48",1
"23/11/05","15:10",0.0,26.4,50.8,1014.9,79.3,1.5,2.8,77.6,0.11,15.4,18.5,"15:00:08",1
"23/11/05","15:20",0.0,26.2,51.2,1014.7,86.1,1.2,3.3,73.0,0.09,15.4,18.7,"15:13:36",1
"23/11/05","15:30",0.0,26.1,52.2,1015.6,66.6,1.2,3.2,115.1,0.08,15.6,18.8,"15:24:24",1
"23/11/05","15:40",0.0,25.8,53.8,1015.6,73.3,1.2,3.4,116.8,0.06,15.8,18.6,"15:36:24",1
"23/11/05","15:50",0.0,25.4,56.1,1015.6,94.9,1.2,3.1,113.6,0.04,16.1,18.6,"15:41:12",1
"23/11/05","16:00",0.0,25.0,58.4,1015.6,62.8,1.3,4.4,37.4,0.02,16.3,18.6,"15:55:44",1
"23/11/05","16:10",0.0,24.6,60.2,1015.6,71.3,1.1,3.1,120.0,0.01,16.4,18.7,"16:01:12",1
"23/11/05","16:20",0.0,24.2,61.5,1015.9,72.2,1.3,3.5,118.6,0.01,16.4,18.7,"16:10:32",1
"23/11/05","16:30",0.0,23.8,63.0,1015.9,61.7,1.1,2.7,57.9,0.00,16.4,18.5,"16:26:40",1
"23/11/05","16:40",0.0,23.5,64.0,1016.1,63.7,1.0,2.4,9.9,0.00,16.3,18.7,"16:34:16",1
"23/11/05","16:50",0.0,23.2,65.1,1016.1,58.4,1.0,2.8,15.2,0.00,16.3,18.7,"16:41:28",1
"23/11/05","17:00",0.0,22.9,66.2,1016.1,53.2,0.8,2.9,95.3,0.00,16.3,18.5,"16:51:44",1
"23/11/05","17:10",0.0,22.8,67.3,1016.1,60.3,0.8,2.2,81.5,0.00,16.5,18.6,"17:09:44",1
"23/11/05","17:20",0.0,22.5,68.5,1016.4,81.8,0.6,1.7,102.1,0.00,16.5,18.7,"17:10:02",1
"23/11/05","17:30",0.0,22.3,69.4,1016.8,46.4,0.6,1.8,120.3,0.00,16.5,18.5,"17:20:08",1
"23/11/05","17:40",0.0,22.3,70.3,1017.1,42.4,0.7,2.0,110.6,0.00,16.7,18.4,"17:32:08",1
"23/11/05","17:50",0.0,22.3,71.3,1016.8,27.1,0.7,1.7,357.8,0.00,16.9,18.4,"17:41:28",1
"23/11/05","18:00",0.0,22.3,72.4,1017.3,44.4,1.0,2.4,78.5,0.00,17.1,18.2,"17:50:16",1
"23/11/05","18:10",0.0,22.3,73.3,1017.1,55.5,1.0,2.6,107.8,0.00,17.3,18.5,"18:05:20",1
"23/11/05","18:20",0.0,22.1,74.3,1017.3,88.4,0.7,1.6,95.2,0.00,17.4,18.4,"18:11:04",1
"23/11/05","18:30",0.0,22.2,74.8,1017.5,118.8,0.8,3.1,106.8,0.00,17.6,18.3,"18:23:04",1
"23/11/05","18:40",0.0,22.2,74.7,1017.1,85.2,0.8,1.8,94.5,0.00,17.5,18.3,"18:34:00",1
"23/11/05","18:50",0.0,22.2,74.9,1017.5,59.8,0.6,2.0,82.0,0.00,17.6,18.2,"18:44:48",1
"23/11/05","19:00",0.0,22.1,75.0,1017.5,49.6,0.7,1.9,6.2,0.00,17.5,18.2,"18:55:20",1
"23/11/05","19:10",0.0,22.0,74.7,1017.8,29.2,0.6,1.6,110.8,0.00,17.3,18.4,"19:07:04",1
"23/11/05","19:20",0.0,21.9,74.0,1017.5,69.5,0.7,1.8,34.4,0.00,17.1,18.3,"19:18:24",1
"23/11/05","19:30",0.0,21.7,73.9,1017.3,72.0,0.5,1.4,111.5,0.00,16.9,18.1,"19:27:28",1
"23/11/05","19:40",0.0,21.7,73.6,1017.5,31.2,0.6,1.4,79.4,0.00,16.8,18.2,"19:33:04",1
"23/11/05","19:50",0.0,21.6,73.3,1017.8,144.8,0.3,1.1,206.9,0.00,16.7,18.1,"19:44:00",1
"23/11/05","20:00",0.0,21.5,73.3,1017.5,25.1,0.5,1.4,132.1,0.00,16.6,18.2,"19:56:48",1
"23/11/05","20:10",0.0,21.5,73.3,1017.5,109.6,0.6,1.7,106.0,0.00,16.6,18.2,"20:04:32",1
"23/11/05","20:20",0.0,21.5,73.8,1017.3,93.1,0.7,1.9,107.2,0.00,16.7,18.2,"20:12:24",1
"23/11/05","20:30",0.0,21.6,73.6,1017.5,86.2,0.7,2.4,120.4,0.00,16.7,18.2,"20:21:04",1
"23/11/05","20:40",0.0,21.6,74.0,1017.5,72.6,0.6,1.3,106.0,0.00,16.8,18.2,"20:32:40",1
"23/11/05","20:50",0.0,21.6,74.5,1017.5,38.3,0.6,1.4,82.6,0.00,16.9,18.3,"20:49:20",1
"23/11/05","21:00",0.0,21.6,74.9,1017.8,56.4,0.6,1.8,66.0,0.00,17.0,18.2,"20:57:04",1
"23/11/05","21:10",0.0,21.6,75.2,1017.5,57.6,0.8,1.8,97.7,0.00,17.1,18.1,"21:06:24",1
"23/11/05","21:20",0.0,21.7,75.7,1017.5,75.2,1.0,2.4,53.2,0.00,17.3,18.2,"21:17:04",1
"23/11/05","21:30",0.0,21.6,76.0,1017.8,84.2,0.8,2.2,114.9,0.00,17.2,18.1,"21:28:24",1
"23/11/05","21:40",0.0,21.5,76.1,1017.5,42.9,0.6,1.9,61.9,0.00,17.2,18.0,"21:36:08",1
"23/11/05","21:50",0.0,21.3,76.5,1017.5,42.9,0.6,1.0,44.6,0.00,17.0,18.1,"21:44:56",1
"23/11/05","22:00",0.0,21.2,77.1,1017.5,34.9,0.7,1.8,110.4,0.00,17.1,18.1,"21:59:12",1
"23/11/05","22:10",0.0,21.1,77.5,1017.1,39.0,0.6,2.1,22.2,0.00,17.1,18.0,"22:03:04",1
"23/11/05","22:20",0.0,21.0,78.2,1017.1,33.2,0.8,2.0,85.1,0.00,17.1,18.2,"22:15:12",1
"23/11/05","22:30",0.0,20.9,78.7,1016.8,32.9,0.7,1.8,349.7,0.00,17.1,18.1,"22:28:16",1
"23/11/05","22:40",0.0,20.7,79.2,1016.6,4.6,0.5,1.3,352.4,0.00,17.0,17.9,"22:30:16",1
"23/11/05","22:50",0.0,20.4,79.8,1016.6,358.6,0.5,1.0,313.8,0.00,16.8,17.9,"22:46:08",1
"23/11/05","23:00",0.0,20.2,80.6,1016.6,316.5,0.5,1.3,96.7,0.00,16.8,18.0,"22:54:56",1
"23/11/05","23:10",0.0,20.4,81.3,1016.4,64.1,0.6,1.4,59.4,0.00,17.1,18.0,"23:00:16",1
"23/11/05","23:20",0.0,20.4,81.3,1016.6,38.1,0.6,2.2,117.5,0.00,17.1,17.9,"23:11:28",1
"23/11/05","23:30",0.0,20.4,81.5,1016.4,76.4,0.5,1.3,104.1,0.00,17.2,18.0,"23:29:44",1
"23/11/05","23:40",0.0,20.4,81.5,1015.9,20.6,0.5,1.3,38.2,0.00,17.2,18.0,"23:32:32",1
"23/11/05","23:50",0.0,20.7,81.4,1015.9,29.2,0.7,2.1,76.6,0.00,17.4,17.8,"23:44:16",1
"23/11/05","24:00",0.0,20.9,80.9,1015.9,44.8,0.7,1.9,91.3,0.00,17.5,18.0,"23:51:28",1
